Grand Rapids, MN

6:19 AM CDT on July 22, 2017 (GMT -0500)
Grandpa TAZ's Weather | | Change Station

Elev 1328 ft 47.24 °N, 93.51 °W | Updated 5 seconds ago

Overcast
Overcast
64.6 °F
Feels Like 64.6 °F
N
0.0
Wind Variable Wind from NW
Gusts 1.8 mph

Today
High -- | Low -- °F
--% Chance of Precip.
Yesterday
High -- | Low -- °F
Precip. -- in
Pressure 29.86 in
Visibility 1.8 miles
Clouds Overcast 400 ft
Dew Point 64 °F
Humidity 99%
Rainfall 0.00 in
Snow Depth Not available.
5:41 AM 8:59 PM
Waning Crescent, 1% visible
SPECI KGPZ 221116Z AUTO 11003KT 1 3/4SM BR OVC004 18/17 A2986 RMK AO2 VIS 1/2V3 CIG 001V004
Pressure 29.86 in
Visibility 1.8 miles
Clouds Overcast 400 ft
Dew Point 64 °F
Humidity 99%
Rainfall 0.00 in
Snow Depth Not available.
5:41 AM 8:59 PM
Waning Crescent, 1% visible
SPECI KGPZ 221116Z AUTO 11003KT 1 3/4SM BR OVC004 18/17 A2986 RMK AO2 VIS 1/2V3 CIG 001V004

Get Severe Weather Alerts

Thanks for signing up!

Be on the lookout for a verification email in your inbox.

You'll start receiving the daily forecast at 6 AM.

×

10-Day Weather Forecast

Almanac

Astronomy

Jul. 22, 2017 Rise Set
Actual Time
Civil Twilight
Nautical Twilight
Astronomical Twilight
Moon
Length of Visible Light
Length of Day
Tomorrow will be .
, % of the Moon is Illuminated

Today's Extremes

State Highs State Lows

Community

WunderPhotos

Category 6

Welcome to Category 6. This is the collective home for Weather Underground's featured writeups by Dr. Jeff Masters (right), Bob Henson (left), Chris Burt, and other regular contributors.

Nearby

Air Quality

  Air Quality AQ Index Pollutant
Not available.

Snow Depth

Station Depth Elevation

Earthquake Activity

City Distance Mag. Time & Date
Minimum magnitude displayed is 2.5.

Coastal Water Temperatures

Place Temperature

Stations

Nearby Weather Stations

Station Location Temp. Windchill Dew Point Humidity Wind Precip. Elev Updated Type
                   

Watches & Warnings

There are currently no watches in effect.